QUETZSAT 1

Last updated on Tue Sep 22 2026 00:03:12 GMT+0000 (Coordinated Universal Time)

1 37826U 11054A 26264.54514427 .00000000 00000+0 00000+0 0 9997 2 37826 0.0143 177.7512 0002738 6.1527 295.7807 1.00269256 50843
UTC large
Height (km)
Speed (km/s)
/
Latitude / Longitude
Inclination (degrees)
Orbital Period (minutes)
Azimuth
Elevation
Range (km)
Doppler Factor

Next 0 passes for location: London (51.5072 / 0.1276)

No passes found over London.
QUETZSAT 1